Location: Valley View Observatory
(41.0081°N, 76.5874°W)
Time: 18:32:45
(UTC-04:00)

Daily predictions for brighter satellites

Satellite Brightness Start Highest point End
(mag) Time Altitude Azimuth Time Altitude Azimuth Time Altitude Azimuth
NOSS 3-3 (A) 4.3 20:10:58 10° S 20:16:29 40° ESE 20:22:26 10° NE
NOSS 3-3 (C) 4.4 20:11:06 10° S 20:16:35 40° ESE 20:22:32 10° NE
Cosmos 1844 Rocket 2.9 20:12:16 10° NNW 20:17:50 54° ENE 20:23:22 10° SE
Cosmos 2263 Rocket 4.2 20:15:03 10° NW 20:19:59 31° WSW 20:24:52 10° SSW
Cosmos 2221 2.9 20:16:37 10° SSW 20:20:51 68° W 20:25:07 10° N
Cosmos 1844 4.2 20:15:42 10° NNW 20:21:09 45° ENE 20:26:38 10° SE
Cosmos 1455 3.4 20:19:29 10° SE 20:22:31 23° E 20:25:35 10° NE
Cosmos 44 4.2 20:20:34 10° SW 20:24:55 51° NW 20:29:33 10° NNE
ERS-2 2.2 20:21:58 10° SSE 20:25:33 57° ENE 20:29:10 10° N
Cosmos 494 Rocket 4.2 20:21:03 10° NNW 20:26:16 79° WSW 20:31:29 10° SSE
Cosmos 2219 Rocket 2.5 20:22:33 10° S 20:27:54 45° ESE 20:33:16 10° NE
Cosmos 2237 Rocket 3.3 20:24:26 10° SSE 20:28:36 22° E 20:32:46 10° NE
Cosmos 1892 3.3 20:25:28 10° N 20:29:08 38° ENE 20:32:46 10° SSE
H-2A R/B 4.0 20:29:02 10° ENE 20:30:12 11° ENE 20:31:22 10° NE
Cosmos 2154 Rocket 4.1 20:24:51 10° S 20:30:59 59° E 20:37:05 10° NNE
Cosmos 2184 Rocket 4.3 20:28:24 10° SSW 20:34:33 73° W 20:40:44 10° N
Cosmos 1805 Rocket 3.5 20:30:15 10° N 20:34:37 89° WNW 20:38:57 10° S
Cosmos 2278 Rocket 3.3 20:32:33 10° N 20:37:24 28° NE 20:41:43 12° ESE
Cosmos 1328 Rocket 4.1 20:36:37 10° SSE 20:40:40 37° E 20:44:45 10° NNE
YAOGAN 6 2.6 20:39:03 10° SSE 20:42:35 62° ENE 20:46:12 10° N
Genesis I 4.4 20:39:01 10° NNW 20:42:39 30° NE 20:45:30 14° ESE
Resurs 01 Rocket 1.8 20:39:28 10° SSE 20:43:48 55° ENE 20:48:08 10° N
Cosmos 2251 Rocket 3.6 20:38:38 10° NNW 20:44:04 83° ENE 20:49:25 10° SSE
Meteor 2-15 4.4 20:38:50 10° N 20:45:00 85° E 20:51:07 10° S
Cosmos 44 Rocket 4.4 20:43:20 10° SW 20:47:55 48° NW 20:52:42 10° NNE
Envisat 3.4 20:43:02 10° S 20:48:04 65° WSW 20:53:08 10° NNW
Cosmos 1470 Rocket 4.3 20:48:22 10° N 20:52:25 35° ENE 20:55:28 16° SE
Cosmos 2341 Rocket 4.1 20:46:30 10° S 20:52:44 60° E 20:58:56 10° NNE
Meteor 2-21 4.5 20:48:11 10° S 20:54:19 89° W 21:00:32 10° N
ATLAS CENTAUR R/B 1.2 20:51:39 10° SSW 20:55:09 48° ESE 20:58:49 10° NE
Cosmos 1340 3.4 20:53:21 10° SSW 20:57:04 57° W 21:00:50 10° N
Cosmos 962 Rocket 4.4 20:51:54 10° S 20:57:56 68° E 21:04:04 10° NNE
Timation 1 Rocket 4.4 20:54:21 10° NNW 21:00:21 84° WSW 21:06:16 10° SSE
Cosmos 2098 Rocket 4.3 20:58:55 18° ESE 21:00:35 22° E 21:03:46 10° NE
Aureole 2 4.2 21:01:43 10° S 21:04:42 47° ESE 21:07:33 10° NNE
NOSS 0 Rocket 3.9 21:00:57 10° S 21:06:59 59° ESE 21:13:05 10° NNE
Cosmos 1295 Rocket 4.5 21:01:19 10° S 21:07:37 75° E 21:13:56 10° N
Cosmos 1825 2.9 21:07:01 10° N 21:10:30 33° ENE 21:11:38 27° ESE
SL-24 R/B - RUBIN 2 4.3 21:07:25 10° NW 21:11:37 48° WSW 21:15:15 13° S
Cosmos 2366 rocket 4.4 21:06:59 12° SSE 21:12:12 41° E 21:18:00 10° NNE
Thor Agena Rocket 4.3 21:08:08 10° N 21:13:16 57° WNW 21:18:25 10° SSW
Cosmos 1666 Rocket 4.4 21:10:44 10° NNW 21:15:07 52° W 21:19:25 10° S
SJ-11-01 4.4 21:13:16 10° S 21:17:51 78° WSW 21:22:33 10° NNW
SL-16 R/B 3.3 21:17:50 22° ESE 21:17:57 22° E 21:22:13 10° NE
Cosmos 1939 Rocket 3.7 21:15:21 10° S 21:19:04 47° W 21:22:51 10° NNW
Resurs 1-3 4.2 21:15:24 10° S 21:19:43 57° W 21:24:03 10° NNW
USA 186 3.6 21:18:29 10° SW 21:20:11 19° W 21:21:54 10° NW
Cosmos 1933 Rocket 3.6 21:16:51 10° N 21:21:12 60° E 21:23:24 27° SSE
Meteor 2-3 Rocket 3.8 21:16:10 10° NNW 21:21:47 80° W 21:27:23 10° S
SL-8 Rocket 4.0 21:15:35 10° S 21:21:49 66° E 21:28:02 10° NNE
GEOS 3 Rocket 4.2 21:21:40 10° NE 21:26:27 33° ESE 21:31:08 10° S
Cosmos 220 Rocket 4.1 21:23:09 10° NNW 21:27:30 76° WSW 21:29:55 25° S
ARGOS 3.5 21:25:39 28° SE 21:28:07 48° ENE 21:33:16 10° N
Cosmos 1869 3.5 21:27:18 36° SE 21:28:27 47° E 21:32:19 10° NNE
Cosmos 1151 Rocket 2.9 21:24:44 10° S 21:28:58 85° E 21:33:16 10° N
ATLAS 2AS CENTAUR R/B 2.9 21:22:32 10° NW 21:30:29 87° WSW 21:35:15 24° SSE
Spot 2 Rocket 3.8 21:26:22 12° S 21:31:02 66° WSW 21:36:07 10° NNW
Lacrosse 5 4.4 21:35:30 10° NNW 21:38:02 14° N 21:40:34 10° NE
BREEZE-M DEB (TANK) 4.4 21:32:35 10° WNW 21:38:35 27° NNW 21:41:04 11° NE
SPOT 5 4.0 21:40:06 24° ENE 21:40:20 24° ENE 21:43:57 10° NNE
Cosmos 1869 Rocket 4.4 21:39:23 10° NNE 21:43:13 31° ENE 21:43:13 31° ENE
Cosmos 1980 3.8 21:38:48 10° SSW 21:44:29 80° WNW 21:50:12 10° NNE
OAO 2 Rocket 4.5 21:44:13 10° WSW 21:48:36 28° SSW 21:49:18 27° S
Cosmos 2297 4.4 21:43:25 10° N 21:48:45 40° ENE 21:50:10 34° E
Meteor 2-10 Rocket 3.7 21:46:07 29° SSE 21:49:05 64° E 21:54:51 10° NNE
Cosmos 2333 Rocket 3.4 21:47:48 10° SW 21:53:11 43° WNW 21:58:34 10° NNE
Cosmos 864 Rocket 4.3 21:49:04 18° S 21:53:48 83° E 21:59:58 10° N
Cosmos 2369 Rocket 4.4 21:54:47 10° NNE 21:56:45 12° NE 21:58:28 10° ENE
Cosmos 2228 Rocket 4.2 21:53:54 10° SSW 21:58:05 43° WNW 22:02:17 10° N
Helios 1A 3.6 21:59:12 42° ENE 21:59:12 42° ENE 22:02:54 10° N
SPOT 1/Viking Rocket 4.1 22:00:11 38° E 22:00:39 39° ENE 22:05:29 10° N
NOSS 3-4 (A) 4.1 21:53:53 10° NNW 22:00:47 56° NE 22:03:34 37° ESE
Cosmos 1408 3.6 21:57:17 10° NNW 22:00:47 43° W 22:01:43 35° SW
NOSS 3-4 (C) 4.1 21:53:59 10° NNW 22:00:53 55° NE 22:03:39 37° ESE
USA 81 4.0 21:56:26 10° N 22:01:42 65° E 22:02:39 54° SE
H-2A R/B 1.9 22:07:50 58° SSE 22:08:51 86° E 22:13:53 10° NNW
SL-8 R/B 3.8 22:05:49 10° WSW 22:10:36 72° NNW 22:12:51 31° NE
Cosmos 407 Rocket 3.3 22:05:30 10° NNW 22:10:37 70° ENE 22:11:08 65° ESE
ERS-1 Rocket 2.8 22:10:13 63° SSE 22:11:01 83° ENE 22:16:05 10° NNW
Cosmos 2219 Rocket 4.3 22:07:15 10° WSW 22:12:02 27° NW 22:16:49 10° N
Cosmos 2237 Rocket 3.0 22:06:45 10° SW 22:12:13 52° WNW 22:17:44 10° NNE
USA 267 3.2 22:05:51 10° NE 22:12:17 57° SE 22:18:41 10° SSW
MetOp-A 4.3 22:12:26 41° S 22:14:15 66° WSW 22:19:36 10° NNW
Cosmos 1862 3.8 22:10:49 10° N 22:14:04 52° NNE 22:14:04 52° NNE
Cosmos 1371 Rocket 4.4 22:12:31 10° SSW 22:17:46 62° WNW 22:23:06 10° NNE
Resurs 01 Rocket 4.4 22:18:22 10° WSW 22:20:36 14° W 22:22:50 10° WNW
Cosmos 2278 Rocket 3.0 22:16:16 10° NW 22:21:38 44° WSW 22:23:35 32° SSW
SL-08 RB Rocket 3.9 22:24:46 60° WSW 22:25:01 61° W 22:29:28 10° NNW
Cosmos 405 Rocket 4.0 22:28:05 36° N 22:28:05 36° N 22:30:29 10° N
Cosmos 1000 Rocket 4.5 22:22:51 10° N 22:28:59 61° E 22:29:25 59° E
ATLAS 5 CENTAUR R/B 4.2 22:25:00 10° N 22:29:01 19° NE 22:31:07 16° ENE
Cosmos 1727 Rocket 4.2 22:23:23 10° NNW 22:29:30 66° W 22:31:34 42° SSW
Cosmos 676 Rocket 4.1 22:24:18 10° NNW 22:29:20 63° NE 22:29:20 63° NE
Cosmos 1821 Rocket 4.0 22:33:03 61° ESE 22:33:15 62° E 22:39:29 10° NNE
ATLAS CENTAUR R/B 4.2 22:32:03 10° W 22:34:25 16° NW 22:36:51 10° N
Cosmos 2056 Rocket 4.3 22:35:44 19° SW 22:39:25 51° WNW 22:44:42 10° N
Cosmos 1452 Rocket 4.3 22:42:01 42° NE 22:42:01 42° NE 22:45:33 10° NNE
USA 234 4.3 22:43:06 27° ENE 22:45:41 37° NNE 22:51:35 10° NW
Landsat 7 4.2 22:46:49 58° N 22:46:49 58° N 22:50:40 10° N
Cosmos 2123 Rocket 4.3 22:44:15 10° N 22:49:58 50° ENE 22:49:58 50° ENE
SL-16 R/B 2.9 22:59:34 34° WSW 23:01:39 51° WNW 23:07:10 10° NNE
Cosmos 2344 3.4 22:58:40 38° SSW 23:01:59 87° SE 23:10:19 10° NE
Terra 2.7 23:05:05 45° N 23:05:05 45° N 23:08:24 10° N
Cosmos 1535 Rocket 4.4 23:04:34 84° NNE 23:04:34 84° NNE 23:10:46 10° N
Cosmos 1140 Rocket 4.1 23:02:38 10° NNW 23:06:45 54° NW 23:06:45 54° NW
CZ-4C R/B 3.7 23:13:19 26° NE 23:13:19 26° NE 23:15:56 10° NE
CZ-2C R/B 4.1 23:14:25 35° N 23:14:25 35° N 23:17:19 10° N
Cosmos 1943 Rocket 3.6 23:09:26 10° N 23:13:21 28° NE 23:13:21 28° NE
SPOT 5 4.4 23:19:20 29° WNW 23:19:20 29° WNW 23:22:22 10° NNW
Helios 1B rocket 4.5 23:17:18 10° N 23:19:45 26° NW 23:19:45 26° NW
Lacrosse 5 3.5 23:18:04 10° NNW 23:21:58 29° NNE 23:21:58 29° NNE
Cosmos 1605 Rocket 4.3 23:24:41 58° NNE 23:24:41 58° NNE 23:29:50 10° N
Cosmos 2369 Rocket 3.1 23:36:14 10° NNW 23:40:15 45° N 23:40:15 45° N
